| time (UTC) | temp F | wind direction | speed MPH | gust MPH | rain 1hr in | rain 24hr in | rain mn in | humidity % | barometer mb |
| 20260905064519 | 76 | 120 | 1.0 | 3.0 | 0.00 | 0.00 | 0.00 | 85 | 1017.4 |
| 20260905063757 | 75 | 97 | 1.0 | 3.0 | 0.00 | 0.00 | 0.00 | 84 | 1015.1 |
| 20260905063532 | 76 | 98 | 1.0 | 4.0 | 0.00 | 0.00 | 0.00 | 85 | 1017.4 |
| 20260905062517 | 76 | 131 | 1.0 | 3.0 | 0.00 | 0.00 | 0.00 | 84 | 1017.4 |
| 20260905061519 | 77 | 132 | 1.0 | 2.0 | 0.00 | 0.00 | 0.00 | 83 | 1017.5 |
| 20260905060757 | 76 | 162 | 0.0 | 2.0 | 0.00 | 0.00 | 0.00 | 82 | 1015.0 |
| 20260905060521 | 77 | 163 | 1.0 | 2.0 | 0.00 | 0.00 | 0.00 | 82 | 1017.4 |
| 20260905055524 | 77 | 135 | 0.0 | 1.0 | 0.00 | 0.00 | 0.00 | 81 | 1017.4 |
| 20260905054525 | 78 | 66 | 1.0 | 3.0 | 0.00 | 0.00 | 0.00 | 80 | 1017.4 |
| 20260905053757 | 77 | 120 | 1.0 | 3.0 | 0.00 | 0.00 | 0.00 | 80 | 1014.9 |
| 20260905053527 | 78 | 121 | 1.0 | 4.0 | 0.00 | 0.00 | 0.00 | 80 | 1017.4 |
| 20260905052529 | 78 | 106 | 1.0 | 3.0 | 0.00 | 0.00 | 0.00 | 80 | 1017.3 |
| 20260905051532 | 78 | 84 | 1.0 | 4.0 | 0.00 | 0.00 | 0.00 | 80 | 1017.4 |
| 20260905050757 | 77 | 155 | 0.0 | 4.0 | 0.00 | 0.00 | 0.00 | 80 | 1014.9 |
| 20260905050516 | 78 | 156 | 1.0 | 4.0 | 0.00 | 0.00 | 0.00 | 80 | 1017.4 |
| 20260905045518 | 78 | 0.0 | 0.0 | 0.00 | 0.00 | 0.00 | 79 | 1017.4 | |
| 20260905044540 | 78 | 116 | 2.0 | 4.0 | 0.00 | 0.00 | 0.00 | 79 | 1017.5 |
| 20260905043757 | 78 | 59 | 1.0 | 2.0 | 0.00 | 0.00 | 0.00 | 78 | 1014.9 |
| 20260905043543 | 78 | 60 | 1.0 | 3.0 | 0.00 | 0.00 | 0.00 | 79 | 1017.5 |
| 20260905042525 | 78 | 101 | 1.0 | 3.0 | 0.00 | 0.00 | 0.00 | 78 | 1017.5 |
| 20260905041521 | 79 | 127 | 1.0 | 3.0 | 0.00 | 0.00 | 0.00 | 76 | 1017.6 |
| 20260905040757 | 79 | 119 | 0.0 | 2.0 | 0.00 | 0.00 | 0.00 | 75 | 1014.8 |
| 20260905040517 | 79 | 119 | 1.0 | 3.0 | 0.00 | 0.00 | 0.00 | 75 | 1017.4 |
| 20260905035531 | 79 | 66 | 1.0 | 2.0 | 0.00 | 0.00 | 0.00 | 74 | 1017.5 |
| 20260905034536 | 79 | 171 | 2.0 | 4.0 | 0.00 | 0.00 | 0.00 | 74 | 1017.4 |
| 20260905033757 | 78 | 55 | 2.0 | 5.0 | 0.00 | 0.00 | 0.00 | 75 | 1014.7 |
| 20260905033518 | 79 | 55 | 2.0 | 5.0 | 0.00 | 0.00 | 0.00 | 75 | 1017.3 |
| 20260905032520 | 79 | 0.0 | 0.0 | 0.00 | 0.00 | 0.00 | 74 | 1017.2 | |
| 20260905031523 | 79 | 0.0 | 0.0 | 0.00 | 0.00 | 0.00 | 73 | 1017.1 | |
| 20260905030757 | 79 | 355 | 0.0 | 1.0 | 0.00 | 0.00 | 0.00 | 72 | 1014.2 |
| 20260905030524 | 80 | 356 | 0.0 | 2.0 | 0.00 | 0.00 | 0.00 | 72 | 1017.0 |
| 20260905025522 | 80 | 203 | 0.0 | 3.0 | 0.00 | 0.00 | 0.00 | 71 | 1016.6 |
| 20260905024523 | 80 | 121 | 1.0 | 3.0 | 0.00 | 0.00 | 0.00 | 70 | 1016.5 |
| 20260905023757 | 80 | 90 | 0.0 | 1.0 | 0.00 | 0.00 | 0.00 | 70 | 1013.6 |
| 20260905023540 | 80 | 90 | 0.0 | 2.0 | 0.00 | 0.00 | 0.00 | 70 | 1016.4 |
| 20260905022522 | 80 | 10 | 0.0 | 3.0 | 0.00 | 0.00 | 0.00 | 72 | 1016.4 |
| 20260905021525 | 81 | 65 | 1.0 | 2.0 | 0.00 | 0.00 | 0.00 | 72 | 1016.2 |
| 20260905020757 | 81 | 112 | 0.0 | 1.0 | 0.00 | 0.00 | 0.00 | 73 | 1013.2 |
| 20260905020527 | 81 | 113 | 0.0 | 1.0 | 0.00 | 0.00 | 0.00 | 74 | 1016.1 |
| 20260905015528 | 81 | 63 | 1.0 | 2.0 | 0.00 | 0.00 | 0.00 | 73 | 1016.1 |
| 20260905014544 | 82 | 45 | 0.0 | 2.0 | 0.00 | 0.00 | 0.00 | 73 | 1016.1 |
| 20260905013757 | 82 | 0 | 0.0 | 0.0 | 0.00 | 0.00 | 0.00 | 70 | 1013.0 |
| 20260905013520 | 83 | 0.0 | 0.0 | 0.00 | 0.00 | 0.00 | 70 | 1016.1 | |
| 20260905012516 | 83 | 90 | 0.0 | 2.0 | 0.00 | 0.00 | 0.00 | 69 | 1016.1 |
| 20260905011518 | 84 | 0.0 | 1.0 | 0.00 | 0.00 | 0.00 | 68 | 1016.0 | |
| 20260905010757 | 84 | 0 | 0.0 | 0.0 | 0.00 | 0.00 | 0.00 | 68 | 1013.0 |
| 20260905010540 | 84 | 0.0 | 0.0 | 0.00 | 0.00 | 0.00 | 68 | 1016.2 | |
| 20260905005522 | 85 | 338 | 0.0 | 2.0 | 0.00 | 0.00 | 0.00 | 66 | 1016.2 |
| 20260905004524 | 85 | 139 | 2.0 | 4.0 | 0.00 | 0.00 | 0.00 | 65 | 1016.3 |
| 20260905003758 | 86 | 111 | 2.0 | 4.0 | 0.00 | 0.00 | 0.00 | 62 | 1013.0 |
| 20260905003526 | 86 | 112 | 3.0 | 4.0 | 0.00 | 0.00 | 0.00 | 63 | 1016.3 |
| 20260905002528 | 86 | 101 | 4.0 | 7.0 | 0.00 | 0.00 | 0.00 | 61 | 1016.2 |
| 20260905001530 | 87 | 124 | 2.0 | 5.0 | 0.00 | 0.00 | 0.00 | 60 | 1016.2 |
| 20260905000757 | 86 | 110 | 3.0 | 4.0 | 0.00 | 0.00 | 0.00 | 58 | 1012.8 |
| 20260905000552 | 87 | 111 | 3.0 | 5.0 | 0.00 | 0.00 | 0.00 | 59 | 1016.2 |
| 20260904235536 | 87 | 107 | 2.0 | 5.0 | 0.00 | 0.00 | 0.00 | 58 | 1016.0 |
| 20260904234518 | 87 | 115 | 3.0 | 6.0 | 0.00 | 0.00 | 0.00 | 56 | 1015.9 |
| 20260904233757 | 88 | 123 | 3.0 | 8.0 | 0.00 | 0.00 | 0.00 | 57 | 1012.0 |
| 20260904233518 | 88 | 123 | 4.0 | 8.0 | 0.00 | 0.00 | 0.00 | 57 | 1015.7 |
| 20260904232520 | 89 | 78 | 4.0 | 6.0 | 0.00 | 0.00 | 0.00 | 59 | 1015.6 |
| 20260904231522 | 90 | 43 | 5.0 | 11.0 | 0.00 | 0.00 | 0.00 | 61 | 1015.5 |
| 20260904230757 | 89 | 75 | 3.0 | 7.0 | 0.00 | 0.00 | 0.00 | 59 | 1011.7 |
| 20260904230518 | 90 | 75 | 3.0 | 8.0 | 0.00 | 0.00 | 0.00 | 59 | 1015.5 |
| 20260904225522 | 90 | 84 | 5.0 | 6.0 | 0.00 | 0.00 | 0.00 | 56 | 1015.4 |
| 20260904224522 | 91 | 65 | 4.0 | 7.0 | 0.00 | 0.00 | 0.00 | 56 | 1015.5 |
| 20260904223757 | 90 | 96 | 5.0 | 10.0 | 0.00 | 0.00 | 0.00 | 56 | 1011.6 |
| 20260904223524 | 91 | 96 | 6.0 | 10.0 | 0.00 | 0.00 | 0.00 | 57 | 1015.5 |
| 20260904222526 | 90 | 96 | 4.0 | 8.0 | 0.00 | 0.00 | 0.00 | 60 | 1015.6 |
| 20260904221529 | 91 | 135 | 6.0 | 8.0 | 0.00 | 0.00 | 0.00 | 59 | 1015.7 |
| 20260904220757 | 91 | 64 | 5.0 | 7.0 | 0.00 | 0.00 | 0.00 | 58 | 1012.0 |
| 20260904220531 | 91 | 64 | 5.0 | 8.0 | 0.00 | 0.00 | 0.00 | 58 | 1015.9 |
| 20260904215533 | 91 | 131 | 5.0 | 8.0 | 0.00 | 0.00 | 0.00 | 56 | 1016.0 |
| 20260904214537 | 90 | 117 | 4.0 | 7.0 | 0.00 | 0.00 | 0.00 | 58 | 1016.2 |
| 20260904213757 | 88 | 142 | 4.0 | 7.0 | 0.00 | 0.00 | 0.00 | 54 | 1012.6 |
| 20260904213539 | 88 | 142 | 5.0 | 7.0 | 0.00 | 0.00 | 0.00 | 55 | 1016.3 |
| 20260904212521 | 87 | 126 | 6.0 | 10.0 | 0.00 | 0.00 | 0.00 | 62 | 1016.4 |
| 20260904211523 | 87 | 87 | 5.0 | 9.0 | 0.00 | 0.00 | 0.00 | 65 | 1016.4 |
| 20260904210757 | 88 | 118 | 4.0 | 6.0 | 0.00 | 0.00 | 0.00 | 64 | 1013.0 |
| 20260904210525 | 88 | 118 | 4.0 | 7.0 | 0.00 | 0.00 | 0.00 | 64 | 1016.6 |
| 20260904205527 | 88 | 98 | 3.0 | 5.0 | 0.00 | 0.00 | 0.00 | 64 | 1016.9 |
| 20260904204603 | 89 | 11 | 3.0 | 6.0 | 0.00 | 0.00 | 0.00 | 62 | 1016.9 |
| 20260904203757 | 89 | 47 | 4.0 | 7.0 | 0.00 | 0.00 | 0.00 | 60 | 1013.2 |
| 20260904203520 | 89 | 47 | 4.0 | 7.0 | 0.00 | 0.00 | 0.00 | 60 | 1017.0 |
| 20260904202515 | 90 | 135 | 4.0 | 6.0 | 0.00 | 0.00 | 0.00 | 60 | 1017.0 |
| 20260904201517 | 90 | 89 | 3.0 | 7.0 | 0.00 | 0.00 | 0.00 | 62 | 1017.1 |
| 20260904200757 | 89 | 99 | 3.0 | 6.0 | 0.00 | 0.00 | 0.00 | 64 | 1013.4 |
| 20260904200519 | 89 | 100 | 3.0 | 6.0 | 0.00 | 0.00 | 0.00 | 65 | 1017.1 |
| 20260904195537 | 89 | 68 | 4.0 | 8.0 | 0.00 | 0.00 | 0.00 | 65 | 1017.3 |
| 20260904194519 | 89 | 96 | 6.0 | 10.0 | 0.00 | 0.00 | 0.00 | 63 | 1017.4 |
| 20260904193757 | 89 | 131 | 4.0 | 8.0 | 0.00 | 0.00 | 0.00 | 64 | 1013.7 |
| 20260904193520 | 90 | 131 | 4.0 | 9.0 | 0.00 | 0.00 | 0.00 | 64 | 1017.4 |
| 20260904192523 | 90 | 125 | 4.0 | 6.0 | 0.00 | 0.00 | 0.00 | 63 | 1017.5 |
| 20260904191525 | 89 | 75 | 4.0 | 7.0 | 0.00 | 0.00 | 0.00 | 64 | 1017.5 |
| 20260904190757 | 88 | 62 | 3.0 | 6.0 | 0.00 | 0.00 | 0.00 | 64 | 1013.9 |
| 20260904190527 | 88 | 62 | 4.0 | 6.0 | 0.00 | 0.00 | 0.00 | 64 | 1017.5 |
| 20260904185529 | 88 | 122 | 5.0 | 8.0 | 0.00 | 0.00 | 0.00 | 63 | 1017.5 |
| 20260904184531 | 88 | 143 | 4.0 | 7.0 | 0.00 | 0.00 | 0.00 | 65 | 1017.6 |
| 20260904183757 | 87 | 84 | 3.0 | 5.0 | 0.00 | 0.00 | 0.00 | 66 | 1014.1 |
| 20260904183515 | 88 | 85 | 4.0 | 5.0 | 0.00 | 0.00 | 0.00 | 66 | 1017.7 |
| 20260904182538 | 87 | 128 | 4.0 | 7.0 | 0.00 | 0.00 | 0.00 | 67 | 1017.8 |
| 20260904181520 | 87 | 108 | 4.0 | 5.0 | 0.00 | 0.00 | 0.00 | 68 | 1017.8 |
| 20260904180757 | 86 | 114 | 3.0 | 5.0 | 0.00 | 0.00 | 0.00 | 67 | 1014.5 |
| 20260904180523 | 87 | 115 | 3.0 | 6.0 | 0.00 | 0.00 | 0.00 | 67 | 1017.9 |
| 20260904175559 | 86 | 131 | 3.0 | 6.0 | 0.00 | 0.00 | 0.00 | 68 | 1018.0 |
| 20260904174526 | 87 | 95 | 4.0 | 6.0 | 0.00 | 0.00 | 0.00 | 67 | 1018.1 |
| 20260904173757 | 86 | 93 | 4.0 | 6.0 | 0.00 | 0.00 | 0.00 | 67 | 1014.7 |
| 20260904173529 | 87 | 93 | 4.0 | 6.0 | 0.00 | 0.00 | 0.00 | 67 | 1018.2 |
| 20260904172531 | 87 | 155 | 4.0 | 7.0 | 0.00 | 0.00 | 0.00 | 69 | 1018.2 |
| 20260904171533 | 87 | 148 | 2.0 | 6.0 | 0.00 | 0.00 | 0.00 | 68 | 1018.3 |
| 20260904170757 | 87 | 94 | 3.0 | 6.0 | 0.00 | 0.00 | 0.00 | 67 | 1014.9 |
| 20260904170517 | 88 | 94 | 4.0 | 6.0 | 0.00 | 0.00 | 0.00 | 67 | 1018.5 |
| 20260904165519 | 88 | 140 | 4.0 | 8.0 | 0.00 | 0.00 | 0.00 | 66 | 1018.5 |
| 20260904164522 | 89 | 15 | 4.0 | 6.0 | 0.00 | 0.00 | 0.00 | 67 | 1018.5 |
| 20260904163757 | 85 | 116 | 3.0 | 7.0 | 0.00 | 0.00 | 0.00 | 71 | 1015.1 |
| 20260904163544 | 86 | 117 | 4.0 | 7.0 | 0.00 | 0.00 | 0.00 | 71 | 1018.6 |
| 20260904162606 | 84 | 168 | 4.0 | 6.0 | 0.00 | 0.00 | 0.00 | 75 | 1018.7 |
| 20260904161528 | 83 | 106 | 4.0 | 6.0 | 0.00 | 0.00 | 0.00 | 78 | 1018.5 |
| 20260904160757 | 82 | 120 | 2.0 | 5.0 | 0.00 | 0.00 | 0.00 | 80 | 1015.7 |
| 20260904160530 | 82 | 120 | 2.0 | 5.0 | 0.00 | 0.00 | 0.00 | 80 | 1018.7 |
| 20260904155532 | 82 | 131 | 4.0 | 8.0 | 0.00 | 0.00 | 0.00 | 81 | 1018.5 |
| 20260904154516 | 81 | 105 | 3.0 | 6.0 | 0.00 | 0.00 | 0.00 | 83 | 1018.4 |
| 20260904153757 | 80 | 138 | 3.0 | 7.0 | 0.00 | 0.00 | 0.00 | 84 | 1015.5 |
| 20260904153518 | 81 | 139 | 4.0 | 7.0 | 0.00 | 0.00 | 0.00 | 84 | 1018.3 |
| 20260904152520 | 80 | 109 | 5.0 | 7.0 | 0.00 | 0.00 | 0.00 | 86 | 1018.3 |
| 20260904151517 | 80 | 111 | 3.0 | 7.0 | 0.00 | 0.00 | 0.00 | 87 | 1018.2 |
| 20260904150757 | 79 | 130 | 4.0 | 7.0 | 0.00 | 0.00 | 0.00 | 88 | 1015.8 |
| 20260904150525 | 79 | 131 | 4.0 | 7.0 | 0.00 | 0.00 | 0.00 | 88 | 1018.5 |
| 20260904145527 | 79 | 87 | 3.0 | 5.0 | 0.00 | 0.00 | 0.00 | 90 | 1018.3 |
| 20260904144530 | 78 | 101 | 4.0 | 8.0 | 0.00 | 0.00 | 0.00 | 91 | 1018.3 |
| 20260904143757 | 77 | 105 | 4.0 | 6.0 | 0.00 | 0.00 | 0.00 | 92 | 1015.8 |
| 20260904143532 | 78 | 105 | 4.0 | 7.0 | 0.00 | 0.00 | 0.00 | 92 | 1018.3 |
| 20260904142516 | 78 | 107 | 4.0 | 8.0 | 0.00 | 0.00 | 0.00 | 92 | 1018.2 |
| 20260904141518 | 77 | 85 | 4.0 | 7.0 | 0.00 | 0.00 | 0.00 | 93 | 1018.1 |
| 20260904140757 | 77 | 111 | 4.0 | 9.0 | 0.00 | 0.00 | 0.00 | 93 | 1015.6 |
| 20260904140540 | 77 | 112 | 5.0 | 9.0 | 0.00 | 0.00 | 0.00 | 93 | 1018.0 |
| 20260904135522 | 77 | 123 | 4.0 | 6.0 | 0.00 | 0.00 | 0.00 | 94 | 1017.8 |
| 20260904134525 | 77 | 116 | 3.0 | 4.0 | 0.00 | 0.00 | 0.00 | 94 | 1017.7 |
| 20260904133757 | 76 | 96 | 3.0 | 5.0 | 0.00 | 0.00 | 0.00 | 95 | 1015.3 |
| 20260904133526 | 77 | 96 | 3.0 | 6.0 | 0.00 | 0.00 | 0.00 | 95 | 1017.7 |
| 20260904132529 | 76 | 84 | 2.0 | 5.0 | 0.00 | 0.00 | 0.00 | 96 | 1017.6 |
| 20260904131531 | 76 | 148 | 2.0 | 5.0 | 0.00 | 0.00 | 0.00 | 96 | 1017.4 |
| 20260904130757 | 75 | 91 | 2.0 | 4.0 | 0.00 | 0.00 | 0.00 | 97 | 1014.9 |
| 20260904130526 | 75 | 91 | 2.0 | 5.0 | 0.00 | 0.00 | 0.00 | 97 | 1017.2 |
| 20260904125536 | 75 | 155 | 2.0 | 5.0 | 0.00 | 0.00 | 0.00 | 97 | 1017.1 |
| 20260904124519 | 75 | 109 | 3.0 | 4.0 | 0.00 | 0.00 | 0.00 | 98 | 1017.0 |
| 20260904123757 | 74 | 115 | 1.0 | 3.0 | 0.00 | 0.00 | 0.00 | 98 | 1014.3 |
| 20260904123515 | 74 | 115 | 2.0 | 3.0 | 0.00 | 0.00 | 0.00 | 98 | 1016.7 |
| 20260904122523 | 74 | 111 | 1.0 | 3.0 | 0.00 | 0.00 | 0.00 | 98 | 1016.4 |
| 20260904121546 | 74 | 68 | 0.0 | 3.0 | 0.00 | 0.00 | 0.00 | 97 | 1016.4 |
| 20260904120757 | 74 | 39 | 0.0 | 4.0 | 0.00 | 0.00 | 0.00 | 97 | 1014.2 |
| 20260904120528 | 74 | 39 | 1.0 | 4.0 | 0.00 | 0.00 | 0.00 | 97 | 1016.4 |
| 20260904115529 | 75 | 137 | 2.0 | 4.0 | 0.00 | 0.00 | 0.00 | 97 | 1016.4 |
| 20260904114531 | 75 | 117 | 2.0 | 4.0 | 0.00 | 0.00 | 0.00 | 96 | 1016.3 |
| 20260904113757 | 74 | 118 | 2.0 | 4.0 | 0.00 | 0.00 | 0.00 | 96 | 1014.1 |
| 20260904113516 | 75 | 119 | 2.0 | 4.0 | 0.00 | 0.00 | 0.00 | 96 | 1016.3 |
| 20260904112519 | 75 | 0.0 | 1.0 | 0.00 | 0.00 | 0.00 | 96 | 1016.4 | |
| 20260904111520 | 75 | 97 | 2.0 | 4.0 | 0.00 | 0.00 | 0.00 | 96 | 1016.4 |
| 20260904110757 | 74 | 101 | 1.0 | 4.0 | 0.00 | 0.00 | 0.00 | 95 | 1014.2 |
| 20260904110522 | 75 | 102 | 2.0 | 4.0 | 0.00 | 0.00 | 0.00 | 95 | 1016.4 |
| 20260904105544 | 75 | 166 | 1.0 | 3.0 | 0.00 | 0.00 | 0.00 | 94 | 1016.4 |
| 20260904104526 | 75 | 125 | 2.0 | 4.0 | 0.00 | 0.00 | 0.00 | 94 | 1016.4 |
| 20260904103757 | 75 | 116 | 1.0 | 2.0 | 0.00 | 0.00 | 0.00 | 93 | 1014.1 |
| 20260904103529 | 76 | 117 | 2.0 | 3.0 | 0.00 | 0.00 | 0.00 | 93 | 1016.4 |
| 20260904102524 | 76 | 126 | 2.0 | 3.0 | 0.00 | 0.00 | 0.00 | 93 | 1016.4 |
| 20260904101519 | 76 | 78 | 2.0 | 5.0 | 0.00 | 0.00 | 0.00 | 93 | 1016.4 |
| 20260904100757 | 75 | 85 | 3.0 | 5.0 | 0.00 | 0.00 | 0.00 | 93 | 1014.0 |
| 20260904100516 | 76 | 86 | 3.0 | 6.0 | 0.00 | 0.00 | 0.00 | 93 | 1016.4 |
| 20260904095518 | 76 | 144 | 4.0 | 6.0 | 0.00 | 0.00 | 0.00 | 93 | 1016.2 |
| 20260904094520 | 76 | 126 | 3.0 | 9.0 | 0.00 | 0.00 | 0.00 | 92 | 1016.2 |
| 20260904093757 | 76 | 112 | 3.0 | 5.0 | 0.00 | 0.00 | 0.00 | 92 | 1013.9 |
| 20260904093522 | 76 | 113 | 4.0 | 6.0 | 0.00 | 0.00 | 0.00 | 92 | 1016.2 |
| 20260904092524 | 76 | 129 | 2.0 | 3.0 | 0.00 | 0.00 | 0.00 | 92 | 1016.2 |
| 20260904091526 | 77 | 134 | 4.0 | 6.0 | 0.00 | 0.00 | 0.00 | 92 | 1016.4 |
| 20260904090757 | 76 | 121 | 4.0 | 7.0 | 0.00 | 0.00 | 0.00 | 91 | 1014.0 |
| 20260904090528 | 77 | 122 | 4.0 | 7.0 | 0.00 | 0.00 | 0.00 | 91 | 1016.4 |
| 20260904085530 | 77 | 96 | 5.0 | 10.0 | 0.00 | 0.00 | 0.00 | 91 | 1016.2 |
| 20260904084533 | 77 | 132 | 4.0 | 6.0 | 0.00 | 0.00 | 0.00 | 91 | 1016.2 |
| 20260904083757 | 76 | 117 | 3.0 | 6.0 | 0.00 | 0.00 | 0.00 | 90 | 1013.7 |
| 20260904083516 | 77 | 118 | 4.0 | 7.0 | 0.00 | 0.00 | 0.00 | 90 | 1016.1 |
| 20260904082519 | 77 | 126 | 4.0 | 8.0 | 0.00 | 0.00 | 0.00 | 90 | 1016.1 |
| 20260904081519 | 77 | 116 | 4.0 | 6.0 | 0.00 | 0.00 | 0.00 | 89 | 1016.4 |
| 20260904080757 | 77 | 108 | 4.0 | 6.0 | 0.00 | 0.00 | 0.00 | 89 | 1014.0 |
| 20260904080540 | 77 | 109 | 4.0 | 6.0 | 0.00 | 0.00 | 0.00 | 89 | 1016.4 |
| 20260904075542 | 77 | 77 | 4.0 | 7.0 | 0.00 | 0.00 | 0.00 | 88 | 1016.6 |
| 20260904074538 | 78 | 117 | 3.0 | 6.0 | 0.00 | 0.00 | 0.00 | 88 | 1016.8 |
| 20260904072548 | 78 | 58 | 4.0 | 8.0 | 0.00 | 0.00 | 0.00 | 87 | 1016.9 |
| 20260904071531 | 78 | 107 | 5.0 | 8.0 | 0.00 | 0.00 | 0.00 | 87 | 1016.8 |
| 20260904070757 | 78 | 112 | 5.0 | 10.0 | 0.00 | 0.00 | 0.00 | 86 | 1014.2 |
| 20260904070532 | 78 | 113 | 5.0 | 10.0 | 0.00 | 0.00 | 0.00 | 86 | 1016.8 |
| 20260904065516 | 79 | 99 | 3.0 | 7.0 | 0.00 | 0.00 | 0.00 | 86 | 1016.6 |